Flag for U.S.A. Weather past 2 weeks in Salem, Oregon, U.S.A.

Now
59 °F

Overcast.


Feels Like: 59 °F
Forecast: 50 / 57 °F
Wind: 5 mph from Southwest

Location: McNary Field


UV Index: 0 (Low)

Visibility: 10 mi


Pressure: 30.03 "Hg

Humidity: 58%

Dew point: 44 °F

Location of SalemLocation

Historic Weather in Salem

°F

Salem temperature yesterday

Maximum temperature yesterday: 59 °F (at 5:56 PM)
Minimum temperature yesterday: 47 °F (at 5:56 AM)
Average temperature yesterday: 52 °F

Past Weeks' High & Low Weather Summary

 TemperatureHumidityPressure
High73 °F (Apr 7, 4:56 PM)100% (Apr 7, 8:56 AM)30.30 "Hg (Apr 7, 8:56 AM)
Low39 °F (Apr 2, 4:56 AM)21% (Apr 13, 4:56 PM)29.87 "Hg (Apr 1, 4:56 PM)
Average53 °F68%30.11 "Hg
* Reported Apr 1 4:56 PM — Apr 16 4:56 PM, Salem, Weather by CustomWeather, © 2014

Note: Actual official high and low records may vary slightly from our data, if they occured in-between our weather recording intervals... More about our weather records

Advertising

Historic Weather Conditions — Data for Previous 24 hours

 ConditionsComfort  
Time TempWeatherWind HumidityBarometerVisibility
4:56 PM
Apr 16
59 °FOvercast.6 mph58%30.04 "Hg10 mi
3:56 PM59 °FPartly sunny.6 mph58%30.06 "Hg10 mi
2:56 PM59 °FMostly cloudy.3 mph56%30.08 "Hg10 mi
1:56 PM61 °FMostly cloudy.6 mph54%30.09 "Hg10 mi
12:56 PM60 °FMostly cloudy.N/A53%30.11 "Hg10 mi
11:56 AM57 °FMostly cloudy.10 mph62%30.12 "Hg10 mi
10:56 AM56 °FCloudy.9 mph67%30.13 "Hg10 mi
9:56 AM52 °FOvercast.10 mph75%30.13 "Hg10 mi
8:56 AM50 °FMostly cloudy.7 mph83%30.14 "Hg10 mi
7:56 AM49 °FMore clouds than sun.7 mph84%30.14 "Hg10 mi
6:56 AM48 °FOvercast.6 mph86%30.14 "Hg10 mi
5:56 AM48 °FOvercast.3 mph89%30.14 "Hg10 mi
4:56 AM48 °FOvercast.5 mph89%30.14 "Hg10 mi
3:56 AM48 °FMostly cloudy.5 mph86%30.15 "Hg10 mi
2:56 AM48 °FOvercast.No wind89%30.15 "Hg10 mi
1:56 AM49 °FLight rain. Overcast.No wind86%30.16 "Hg10 mi
12:56 AM49 °FLight rain. Overcast.No wind84%30.16 "Hg10 mi
11:56 PM
Apr 15
49 °FLight rain. Overcast.3 mph77%30.16 "Hg10 mi
10:56 PM51 °FOvercast.3 mph66%30.16 "Hg10 mi
9:56 PM51 °FOvercast.3 mph63%30.15 "Hg10 mi
8:56 PM53 °FPassing clouds.7 mph61%30.16 "Hg10 mi
7:56 PM54 °FPassing clouds.9 mph62%30.13 "Hg10 mi
6:56 PM57 °FPartly sunny.5 mph51%30.16 "Hg10 mi
Weather by CustomWeather, © 2014

See weather overview